Stündliche Wetter Jullianges

Heute, 5 März, Freitag

Zeit Temperatur Niederschläge Wind Luftdruck Luftfeuchtigkeit
00:00 +4°C° 0 mm 0 m/S 677 mmHg 94%
01:00 +4°C° 0 mm 0 m/S 677 mmHg 95%
02:00 +4°C° 0 mm 0 m/S 677 mmHg 96%
03:00 +3°C° 0 mm 0 m/S 676 mmHg 96%
04:00 +4°C° 0 mm 1 m/S 676 mmHg 97%
05:00 +4°C° 0 mm 1 m/S 676 mmHg 97%
06:00 +4°C° 0 mm 1 m/S 676 mmHg 97%
07:00 +4°C° 0.1 mm 1 m/S 676 mmHg 96%
08:00 +5°C° 0.1 mm 1 m/S 676 mmHg 95%
09:00 +5°C° 0.1 mm 1 m/S 676 mmHg 94%
10:00 +4°C° 0.1 mm 2 m/S 676 mmHg 92%
11:00 +4°C° 0.1 mm 2 m/S 676 mmHg 89%
12:00 +5°C° 0 mm 2 m/S 677 mmHg 87%
13:00 +5°C° 0.1 mm 2 m/S 677 mmHg 86%
14:00 +5°C° 0.1 mm 2 m/S 676 mmHg 85%
15:00 +5°C° 0.1 mm 2 m/S 676 mmHg 84%
16:00 +4°C° 0.1 mm 2 m/S 676 mmHg 87%
17:00 +3°C° 0.1 mm 2 m/S 677 mmHg 89%
18:00 +2°C° 0.1 mm 2 m/S 677 mmHg 91%
19:00 +1°C° 0 mm 2 m/S 677 mmHg 93%
20:00 +1°C° 0 mm 2 m/S 677 mmHg 94%
21:00 -1°C° 0 mm 2 m/S 677 mmHg 95%
22:00 0°C° 0 mm 1 m/S 677 mmHg 95%
23:00 0°C° 0 mm 1 m/S 677 mmHg 96%

Morgen, 6 März, Samstag

Zeit Temperatur Niederschläge Wind Luftdruck Luftfeuchtigkeit
00:00 -1°C° 0 mm 1 m/S 677 mmHg 96%
01:00 -2°C° 0 mm 0 m/S 677 mmHg 96%
02:00 -2°C° 0 mm 0 m/S 677 mmHg 95%
03:00 -2°C° 0 mm 0 m/S 677 mmHg 95%
04:00 -2°C° 0 mm 0 m/S 678 mmHg 95%
05:00 -2°C° 0 mm 0 m/S 678 mmHg 95%
06:00 -2°C° 0 mm 0 m/S 678 mmHg 95%
07:00 -1°C° 0 mm 0 m/S 679 mmHg 89%
08:00 +1°C° 0 mm 0 m/S 679 mmHg 84%
09:00 +3°C° 0 mm 1 m/S 679 mmHg 79%
10:00 +5°C° 0 mm 1 m/S 680 mmHg 70%
11:00 +8°C° 0 mm 1 m/S 680 mmHg 61%
12:00 +10°C° 0 mm 1 m/S 681 mmHg 52%
13:00 +10°C° 0 mm 1 m/S 681 mmHg 52%
14:00 +10°C° 0 mm 1 m/S 680 mmHg 52%
15:00 +10°C° 0 mm 1 m/S 680 mmHg 51%
16:00 +8°C° 0 mm 1 m/S 679 mmHg 63%
17:00 +6°C° 0 mm 1 m/S 679 mmHg 75%
18:00 +4°C° 0 mm 1 m/S 679 mmHg 86%
19:00 +3°C° 0 mm 1 m/S 679 mmHg 88%
20:00 +3°C° 0 mm 1 m/S 679 mmHg 90%
21:00 +2°C° 0 mm 1 m/S 679 mmHg 92%
22:00 +2°C° 0 mm 1 m/S 679 mmHg 93%
23:00 +2°C° 0 mm 1 m/S 679 mmHg 94%

übermorgen, 7 März, Sonntag

Zeit Temperatur Niederschläge Wind Luftdruck Luftfeuchtigkeit
00:00 +2°C° 0 mm 1 m/S 679 mmHg 94%
01:00 +1°C° 0 mm 1 m/S 679 mmHg 94%
02:00 +1°C° 0 mm 1 m/S 679 mmHg 94%
03:00 +1°C° 0 mm 1 m/S 678 mmHg 95%
04:00 +1°C° 0 mm 1 m/S 678 mmHg 94%
05:00 +1°C° 0 mm 1 m/S 678 mmHg 94%
06:00 +1°C° 0 mm 1 m/S 678 mmHg 93%
07:00 +3°C° 0.1 mm 1 m/S 679 mmHg 87%
08:00 +5°C° 0.1 mm 1 m/S 679 mmHg 81%
09:00 +7°C° 0.1 mm 1 m/S 679 mmHg 75%
10:00 +7°C° 0.3 mm 1 m/S 679 mmHg 77%
11:00 +7°C° 0.3 mm 1 m/S 679 mmHg 79%
12:00 +7°C° 0.3 mm 1 m/S 679 mmHg 82%
13:00 +6°C° 0.2 mm 1 m/S 678 mmHg 82%
14:00 +6°C° 0.2 mm 1 m/S 677 mmHg 83%
15:00 +6°C° 0.2 mm 1 m/S 677 mmHg 84%
16:00 +5°C° 0 mm 1 m/S 677 mmHg 87%
17:00 +4°C° 0 mm 0 m/S 676 mmHg 91%
18:00 +3°C° 0 mm 0 m/S 676 mmHg 94%
19:00 +3°C° 0 mm 0 m/S 676 mmHg 94%
20:00 +3°C° 0 mm 0 m/S 676 mmHg 94%
21:00 +3°C° 0 mm 0 m/S 677 mmHg 93%
22:00 +3°C° 0 mm 0 m/S 677 mmHg 94%
23:00 +3°C° 0 mm 0 m/S 677 mmHg 94%

8 März, Montag

Zeit Temperatur Niederschläge Wind Luftdruck Luftfeuchtigkeit
00:00 +3°C° 0 mm 0 m/S 677 mmHg 94%
01:00 +2°C° 0.1 mm 0 m/S 676 mmHg 95%
02:00 +2°C° 0.1 mm 0 m/S 676 mmHg 96%
03:00 +2°C° 0.1 mm 0 m/S 676 mmHg 97%
04:00 +3°C° 0 mm 1 m/S 676 mmHg 97%
05:00 +2°C° 0 mm 1 m/S 676 mmHg 97%
06:00 +2°C° 0 mm 1 m/S 676 mmHg 97%
07:00 +2°C° 0 mm 1 m/S 676 mmHg 95%
08:00 +3°C° 0 mm 1 m/S 676 mmHg 92%
09:00 +3°C° 0 mm 1 m/S 676 mmHg 89%
10:00 +3°C° 0 mm 2 m/S 676 mmHg 84%
11:00 +4°C° 0 mm 2 m/S 676 mmHg 78%
12:00 +4°C° 0 mm 2 m/S 676 mmHg 73%
13:00 +5°C° 0 mm 2 m/S 676 mmHg 66%
14:00 +6°C° 0 mm 2 m/S 675 mmHg 59%
15:00 +5°C° 0 mm 3 m/S 675 mmHg 53%
16:00 +4°C° 0 mm 2 m/S 675 mmHg 60%
17:00 +2°C° 0 mm 2 m/S 675 mmHg 68%
18:00 +1°C° 0 mm 1 m/S 675 mmHg 76%
19:00 0°C° 0 mm 1 m/S 675 mmHg 79%
20:00 -1°C° 0 mm 1 m/S 675 mmHg 82%
21:00 -1°C° 0 mm 1 m/S 675 mmHg 85%
22:00 -2°C° 0 mm 1 m/S 675 mmHg 87%
23:00 -3°C° 0 mm 0 m/S 675 mmHg 89%

9 März, Dienstag

Zeit Temperatur Niederschläge Wind Luftdruck Luftfeuchtigkeit
00:00 -3°C° 0 mm 0 m/S 675 mmHg 91%
01:00 -4°C° 0 mm 0 m/S 675 mmHg 92%
02:00 -4°C° 0 mm 0 m/S 675 mmHg 93%
03:00 -4°C° 0 mm 0 m/S 675 mmHg 93%
04:00 -4°C° 0 mm 0 m/S 675 mmHg 94%
05:00 -4°C° 0 mm 0 m/S 676 mmHg 94%
06:00 -4°C° 0 mm 0 m/S 676 mmHg 94%
07:00 -1°C° 0 mm 1 m/S 676 mmHg 81%
08:00 +1°C° 0 mm 1 m/S 677 mmHg 68%
09:00 +2°C° 0 mm 2 m/S 678 mmHg 55%
10:00 +4°C° 0 mm 2 m/S 678 mmHg 49%
11:00 +5°C° 0 mm 2 m/S 678 mmHg 43%
12:00 +6°C° 0 mm 2 m/S 678 mmHg 36%
13:00 +6°C° 0 mm 2 m/S 678 mmHg 38%
14:00 +5°C° 0 mm 3 m/S 678 mmHg 40%
15:00 +7°C° 0 mm 3 m/S 678 mmHg 42%
16:00 +4°C° 0 mm 2 m/S 677 mmHg 53%
17:00 +2°C° 0 mm 2 m/S 677 mmHg 63%
18:00 +1°C° 0 mm 1 m/S 677 mmHg 74%
19:00 0°C° 0 mm 1 m/S 677 mmHg 77%
20:00 -1°C° 0 mm 1 m/S 678 mmHg 79%
21:00 -2°C° 0 mm 0 m/S 678 mmHg 82%
22:00 -3°C° 0 mm 0 m/S 678 mmHg 82%
23:00 -3°C° 0 mm 0 m/S 678 mmHg 82%

10 März, Mittwoch

Zeit Temperatur Niederschläge Wind Luftdruck Luftfeuchtigkeit
00:00 -2°C° 0 mm 1 m/S 678 mmHg 83%
01:00 -2°C° 0 mm 1 m/S 678 mmHg 83%
02:00 -2°C° 0 mm 1 m/S 678 mmHg 83%
03:00 -2°C° 0 mm 1 m/S 678 mmHg 83%
04:00 -2°C° 0 mm 1 m/S 678 mmHg 82%
05:00 -2°C° 0 mm 1 m/S 679 mmHg 81%
06:00 -2°C° 0 mm 1 m/S 679 mmHg 80%
07:00 0°C° 0 mm 1 m/S 680 mmHg 68%
08:00 +3°C° 0 mm 1 m/S 680 mmHg 57%
09:00 +6°C° 0 mm 1 m/S 681 mmHg 45%
10:00 +8°C° 0 mm 1 m/S 681 mmHg 40%
11:00 +10°C° 0 mm 1 m/S 681 mmHg 34%
12:00 +11°C° 0 mm 1 m/S 681 mmHg 29%
13:00 +12°C° 0 mm 2 m/S 681 mmHg 30%
14:00 +12°C° 0 mm 2 m/S 680 mmHg 30%
15:00 +12°C° 0 mm 2 m/S 680 mmHg 31%
16:00 +8°C° 0 mm 2 m/S 679 mmHg 41%
17:00 +6°C° 0 mm 1 m/S 679 mmHg 50%
18:00 +4°C° 0 mm 1 m/S 678 mmHg 60%
19:00 +3°C° 0 mm 1 m/S 678 mmHg 62%
20:00 +2°C° 0 mm 1 m/S 678 mmHg 65%
21:00 -1°C° 0 mm 2 m/S 678 mmHg 68%
22:00 -1°C° 0 mm 2 m/S 678 mmHg 66%
23:00 -1°C° 0 mm 2 m/S 678 mmHg 64%
Mehr zeigen

Wir brauchen deine Erlaubnis

Meteoprog und unser Service Anbieter werden persönliche Daten aufbewahren, so wie Cookies, Geräte Bezeichnung oder ähnliche Technologien von deinem Gerät und Prozess, so wie Persönliche Daten Inhalte und Werbungen, genauso wie social Media und den Verkehr zu analysieren.

  • Aufbewahrung und/oder Zugang zu deiner Geräte Informationen.

    Cookies, Geräte Bezeichnung oder andere Informationen, können aufbewahrt oder Zugang zu deinem Gerät erhalten, für den Grund, der oben angegeben wird.

  • Personalisierte Werbung und Inhalte, Messungen, Einblick in das Publikum und Produkt Entwicklung.

    Werbungen und Inhalte können personalisiert werden, basierend auf ein Profil. Mehr Daten können besser personalisierte Werbungen und Inhalte hinzufügen. Werbung und Inhalte können gezeigt und gemessen werden. Einblicke über das Publikum, welche die Werbung gesehen haben und den Inhalt, können abgeleitet werden. So wie Daten können genutzt werden, um es zu verbessern oder die Benutzer Erfahrung zu verbessern das System und die Software.

Wenn du “Ich stimme zu” klickst, erlaubst du uns, die Cookies zu benutzen die Geräte Bezeichnung, den Web oder ähnliche Technologien zu benutzen. Deine Settings, können in deinem Gerät bei deinem Browser geändert werden.

Für den bestimmten Zweck, berechtigten Interessen beruhen darauf, mehr als auf den Inhalt. Du kannst mehr darüber in unseren Privaten und Cookie Politik lesen.